Weather observations for the past three days for
Selinsgrove Penn Valley Airport
Imperial (Metric)
Date Time (edt) Wind (mph) Vis. (mi.) Weather Sky Cond. Temperature (ºF) Relative Humidity Wind Chill (°F) Heat Index (°F) Pressure Precipitation (in)
Air Dwpt 6 hour altimeter (in) sea level (mb) 1 hr 3 hr 6 hr
Max. Min.
22 05:53 Calm 6.00 Fog/Mist CLR 70 68 93% 30.08 1018.4
22 04:53 Calm 8.00 Fair CLR 70 68 93% 30.07 1017.8
22 03:53 NW 3 10.00 Fair CLR 71.1 69.1 94% 30.08 1018.2
22 02:53 N 5 10.00 Fair CLR 72 69.1 91% 30.09 1018.5
22 01:53 NW 3 10.00 Fair CLR 73 69.1 84 73 87% 30.1 1018.8
22 00:53 NW 5 10.00 Fair CLR 75 68 79% 76 30.11 1019.0
21 23:53 Calm 10.00 Partly Cloudy FEW060 SCT070 SCT085 78.1 66.9 69% 80 30.11 1019.2
21 22:53 N 5 10.00 Thunderstorm in Vicinity BKN060 80.1 69.1 69% 83 30.12 1019.3
21 21:53 NE 5 10.00 A Few Clouds FEW075 80.1 69.1 69% 83 30.1 1018.9
21 20:53 Calm 10.00 Fair CLR 82 73.9 77% 88 30.07 1017.8
21 19:53 Calm 10.00 Fair CLR 82.9 75.9 97 82.9 79% 91 30.07 1017.7 0.13
21 18:53 Calm 10.00 Fair CLR 84.9 73 68% 92 30.07 1017.7
21 17:53 S 7 10.00 Fair CLR 86 71.1 61% 92 30.08 1018.4 0.13
21 16:53 Vrbl 6 10.00 Mostly Cloudy SCT070 BKN085 89.1 69.1 52% 94 30.1 1018.8
21 15:53 Vrbl 3 10.00 Partly Cloudy SCT070 SCT080 95 66.9 40% 99 30.09 1018.5
21 14:53 Vrbl 5 10.00 Partly Cloudy SCT060 96.1 66.9 39% 100 30.11 1019.1
21 13:53 Vrbl 7 10.00 A Few Clouds FEW055 93.9 68 95 77 43% 98 30.14 1020.1
21 12:53 S 12 10.00 Fair CLR 93 69.1 46% 98 30.17 1021.1
21 11:53 Vrbl 5 10.00 Fair CLR 90 69.1 50% 95 30.19 1021.9
21 10:53 Calm 10.00 Fair CLR 86 69.1 57% 90 30.2 1022.2
21 09:53 Vrbl 3 10.00 Fair CLR 84.9 66.9 55% 88 30.21 1022.6
21 08:53 Vrbl 3 10.00 Fair CLR 81 66.9 62% 83 30.23 1023.2
21 07:53 Vrbl 3 10.00 Fair CLR 77 66.9 77 66 71% 79 30.23 1023.1
21 06:53 Calm 10.00 Fair CLR 71.1 66.9 87% 30.22 1023.0
21 05:53 Calm 9.00 Fair CLR 66.9 64.9 93% 30.23 1023.2
21 04:53 Calm 9.00 Fair CLR 66.9 66 97% 30.22 1022.9
21 03:53 Calm 10.00 Fair CLR 68 66 93% 30.23 1023.1
21 02:53 Calm 10.00 Fair CLR 69.1 66 90% 30.23 1023.0
21 01:53 Calm 10.00 Fair CLR 69.1 66.9 87.1 69.1 93% 30.23 1023.2
21 00:53 Calm 10.00 Fair CLR 70 66.9 90% 30.24 1023.4
20 23:53 Calm 10.00 Fair CLR 72 66.9 84% 30.24 1023.6
20 22:53 Calm 10.00 Fair CLR 73 66.9 81% 30.24 1023.5
20 21:53 Calm 10.00 Fair CLR 75 66.9 76% 76 30.24 1023.5
20 20:53 Calm 10.00 Fair CLR 77 68 74% 79 30.22 1023.1
20 19:53 SW 6 10.00 Fair CLR 87.1 63 93 87.1 45% 88 30.22 1022.9
20 18:53 S 8 10.00 Fair CLR 90 63 41% 91 30.22 1022.8
20 17:53 SW 6 10.00 Fair CLR 91 63 39% 92 30.23 1023.3
20 16:53 SW 6 10.00 Fair CLR 91.9 60.1 34% 92 30.25 1023.9
20 15:53 S 8 10.00 Fair CLR 93 60.1 33% 93 30.27 1024.5
20 13:53 SE 8 10.00 Fair CLR 90 63 91 73 41% 91 30.29 1025.4
20 12:53 SE 9 10.00 Fair CLR 90 64 42% 91 30.32 1026.2
20 11:53 Calm 10.00 Fair CLR 88 64.9 46% 90 30.33 1026.5
20 10:53 Vrbl 5 10.00 Fair CLR 84.9 66 53% 87 30.34 1026.9
20 09:53 Vrbl 5 10.00 Fair CLR 81 64 57% 83 30.34 1027.0
20 08:53 S 3 10.00 Fair CLR 77 63 62% 79 30.35 1027.1
20 07:53 Calm 10.00 Fair CLR 73 63 73 66 71% 30.34 1027.1
20 06:53 Calm 10.00 Fair CLR 70 63 79% 30.34 1026.8
20 05:53 Calm 10.00 Fair CLR 66 63 90% 30.32 1026.2
20 04:53 Calm 10.00 Fair CLR 66.9 63 87% 30.31 1026.0
20 03:53 Calm 10.00 Fair CLR 68 64 87% 30.31 1026.1
20 02:53 Calm 10.00 Fair CLR 68 64 87% 30.31 1026.1
20 01:53 S 3 10.00 Fair CLR 71.1 64 87.1 70 79% 30.32 1026.4
20 00:53 S 3 10.00 Fair CLR 75 62.1 64% 77 30.33 1026.6
19 23:53 Calm 10.00 Fair CLR 75 62.1 64% 77 30.33 1026.5
19 22:53 S 3 10.00 Fair CLR 80.1 61 52% 81 30.32 1026.3
19 21:53 S 6 10.00 Fair CLR 82 63 53% 83 30.31 1025.8
19 20:53 S 9 10.00 Fair CLR 84.9 68 57% 88 30.29 1025.1
19 19:53 Calm 10.00 Fair CLR 87.1 68 93 87.1 53% 91 30.28 1025.0
19 18:53 S 3 10.00 Fair CLR 89.1 66.9 48% 92 30.28 1024.9
19 17:53 SW 3 10.00 Fair CLR 89.1 66 47% 92 30.27 1024.7
19 16:53 SE 7 10.00 Fair CLR 90 66 45% 93 30.28 1024.8
19 15:53 S 7 10.00 Fair CLR 91.9 63 38% 93 30.3 1025.5
19 14:53 S 8 G 18 10.00 Fair CLR 91 62.1 38% 92 30.31 1025.8
19 13:53 Vrbl 6 10.00 Fair CLR 90 66.9 91 77 47% 93 30.31 1026.0
19 12:53 SE 6 10.00 Fair CLR 90 66 45% 93 30.33 1026.5
19 11:53 S 7 10.00 Fair CLR 88 68 52% 92 30.33 1026.8
19 10:53 SE 7 10.00 Fair CLR 86 69.1 57% 90 30.35 1027.2
19 09:53 Vrbl 7 10.00 Fair CLR 82 69.1 65% 85 30.35 1027.2
19 08:53 SE 6 10.00 Fair CLR 80.1 68 67% 83 30.35 1027.3
19 07:53 SW 3 10.00 Fair CLR 77 68 77 71.1 74% 79 30.34 1026.9
19 06:53 Calm 9.00 Fair CLR 73 69.1 87% 30.33 1026.5
Date Time (edt) Wind (mph) Vis. (mi.) Weather Sky Cond. Air Dwpt Max. Min. Relative Humidity Wind Chill (°F) Heat Index (°F) altimeter (in) sea level (mb) 1 hr 3 hr 6 hr
6 hour
Temperature (ºF) Pressure Precipitation (in)